Regional Weather Roundup
Issued by NWS Wakefield, VA

Home | Current Version | Previous Version | Graphics & Text | Print | Product List | Glossary On
Versions: 1 2 3 4 5 6 7 8 9 10 11 12 13 14 15 16 17 18 19 20 21 22 23 24 25 26 27 28 29 30 31 32 33 34 35 36 37 38 39 40 41 42 43 44 45 46 47 48 49 50
000
ASUS41 KAKQ 262115
RWRAKQ

REGIONAL WEATHER ROUNDUP
NATIONAL WEATHER SERVICE WAKEFIELD VA
500 PM EDT WED APR 26 2017

Note: "fair" indicates few or no clouds below 12,000 feet with no
significant weather and/or obstructions to visibility. * = Denotes
station may not report precipitation (e.g., rain,snow,etc.),
thunder or fog.

VAZ042-051-052>054-056-262200-
NORTHERN VIRGINIA

CITY           SKY/WX    TMP DP  RH WIND       PRES   REMARKS
WASH NATIONAL  PTSUNNY   70  59  68 NE6       29.77F
DULLES         PTSUNNY   72  58  61 NW3       29.77S
FORT BELVOIR   MOSUNNY   73  58  58 NW3       29.76F
QUANTICO       MOSUNNY   70  60  70 CALM      29.77F
FREDERICKSBRG* MOSUNNY   75  60  60 CALM      29.75S
STAFFORD*      MOSUNNY   73  60  65 SE3       29.79F
WARRENTON      MOSUNNY   77  54  45 CALM      29.75S
CULPEPER*      MOSUNNY   75  60  58 CALM      29.76S
MANASSAS*        N/A     73  59  61 VRB3      29.76F
LEESBURG*      CLOUDY    73  61  64 E6        29.77S
WINCHESTER     SUNNY     72  57  60 E8        29.75S
FRONT ROYAL*   CLEAR     73  59  60 CALM      29.73F
LURAY*         CLEAR     77  59  53 E3        29.74F
$$

VAZ048-049-060>072-079>083-262200-
CENTRAL AND SOUTH CENTRAL VIRGINIA

CITY           SKY/WX    TMP DP  RH WIND       PRES   REMARKS
RICHMOND       MOSUNNY   76  58  53 SW7       29.77S
CHESTERFIELD*  FAIR      79  48  34 W6        29.78F
PETERSBURG*    PTSUNNY   76  56  50 CALM      29.78S
HANOVER        MOSUNNY   75  56  51 CALM      29.78S
TAPPAHANNOCK*  CLOUDY    71  58  64 CALM      29.79S
QUINTON*       MOCLDY    74  60  60 S3        29.77S
CHARLOTTSVILLE MOSUNNY   80  59  48 SE7       29.74S
GORDONSVILLE*  PTCLDY    77  60  56 NE5       29.75S
ORANGE*        SUNNY     73  59  60 CALM      29.76S
LOUISA*        SUNNY     79  63  57 E5        29.75S
BUMPASS*       FAIR      75  59  57 CALM      29.76S
FARMVILLE*     CLOUDY    79  60  51 SE5       29.75S
CREWE*         MOCLDY    78  60  55 CALM      29.77S
FORT PICKETT*  MOCLDY    78  53  42 S6        29.77S
CHASE CITY*    CLOUDY    78  59  51 SW6       29.77S
CLARKSVILLE*   MOCLDY    77  63  61 SW7       29.77S
SOUTH HILL*    MOSUNNY   76  62  61 SW6       29.83S
LAWRENCEVILLE* MOCLDY    76  61  59 CALM      29.77S
EMPORIA*       MOSUNNY  N/A N/A N/A CALM      29.79S
$$

VAZ088>098-262200-
SOUTHEAST VIRGINIA

CITY           SKY/WX    TMP DP  RH WIND       PRES   REMARKS
NORFOLK        CLOUDY    74  58  57 VRB6      29.79R
VIRGINIA BEACH CLOUDY    70  58  65 N5        29.79R
NORFOLK NAVAL  MOSUNNY   72  57  59 W5        29.80S
WEST POINT*    CLOUDY    72  58  61 CALM      29.79S
SALUDA*        CLOUDY    65  62  89 E5        29.79S
NEWPORT NEWS   MOSUNNY   73  59  61 W7        29.79R
LANGLEY AFB    MOSUNNY   72  61  67 N3        29.78S
FORT EUSTIS    SUNNY     78  60  54 CALM      29.76S
WILLIAMSBURG*  SUNNY     77  63  61 CALM      29.79S
HR EXEC AP*    FAIR      73  59  60 W6        29.76F
FRANKLIN*      MOSUNNY   75  60  60 W3        29.78S
US460-WAKEFLD  MOSUNNY   76  59  55 SW5       29.77F
$$

VAZ020-022-025-037-045-262200-
WEST CENTRAL AND SOUTHWEST VIRGINIA

CITY           SKY/WX    TMP DP  RH WIND       PRES   REMARKS
STAUNTON*      SUNNY     76  60  56 SE6       29.76F
WAYNESBORO*    CLEAR     78  60  53 E8        29.76S
HOT SPRINGS VA SUNNY     72  45  37 S9        29.87R
LYNCHBURG      MOSUNNY   79  58  48 S9        29.77F
DANVILLE       SUNNY     78  62  57 VRB6      29.77S
SOUTH BOSTON*  MOCLDY    79  60  50 SW5       29.77S
MARTINSVILLE   MOSUNNY   80  60  51 S3        29.80S
ROANOKE        MOSUNNY   81  61  50 SE8       29.76F
BLACKSBURG     SUNNY     79  55  44 SE7       29.82S
DUBLIN*        SUNNY     81  51  34 S7        29.81S
MARION*        SUNNY     79  46  31 CALM      29.83F
HILLSVILLE*    SUNNY     75  60  60 S6        29.83R
RICHLANDS*     FAIR      77  56  47 CALM      29.81F
WISE*          SUNNY     77  41  27 S12       29.81S
ABINGDON*      SUNNY     80  54  39 CALM      29.78F
$$

MDZ021>025-VAZ099-100-262200-
SOUTHERN MARYLAND AND THE DELMARVA PENINSULA

CITY           SKY/WX    TMP DP  RH WIND       PRES   REMARKS
PATUXENT RIVER MOSUNNY   65  61  87 E7        29.78F
BAY BRIDGE APT CLOUDY    63  57  82 CALM      29.79S FOG
LEONARDTOWN    MOSUNNY   64  59  82 NE3       29.80S
DOVER          CLOUDY    64  64 100 N3        29.77R
GEORGETOWN     CLOUDY    65  59  81 W3        29.78R
EASTON         CLOUDY    64  57  77 NW5       29.83R
CAMBRIDGE      CLOUDY    64  59  82 VRB5      29.79S
SALISBURY      CLOUDY    63  60  90 W6        29.79R
OCEAN CITY     CLOUDY    56  54  93 CALM      29.79R FOG
WALLOPS ISLAND CLOUDY    65  59  81 NW9       29.79R
ACCOMACK*      CLOUDY    67  23  19 NW7       29.80R
$$

NCZ012>017-030>032-262200-
NORTH CENTRAL AND EASTERN NORTH CAROLINA

CITY           SKY/WX    TMP DP  RH WIND       PRES   REMARKS
ROANOKE RAPIDS MOCLDY    75  63  64 SW6       29.78S
RALEIGH        MOSUNNY   81  63  54 W6        29.78F
ELIZABETH CITY PTSUNNY   74  63  68 W7        29.80R
AHOSKIE*         N/A     74  62  67 S3        29.79S
EDENTON*       PTSUNNY   77  63  62 CALM      29.81R
CURRITUCK*     CLOUDY    73  58  60 W7        29.81R
KILL DEVIL HLS MOSUNNY   72  57  60 W7        29.79S
MANTEO         MOSUNNY   71  59  64 NW5       29.81R
CAPE HATTERAS  SUNNY     73  61  65 SW10      29.82R HAZE
TARBORO*       NOT AVBL
GOLDSBORO      MOSUNNY   81  63  54 SW12      29.77S
WASHINGTON     PTSUNNY   76  63  63 W5        29.79S
GREENVILLE     PTSUNNY   77  63  61 W3        29.82S
NEW BERN       PTSUNNY   80  64  58 W8        29.80S
WILMINGTON     SUNNY     82  61  48 SW14      29.80S
$$

VAZ048-262200-
ELSEWHERE

CITY           SKY/WX    TMP DP  RH WIND       PRES   REMARKS
HARRISBURG PA  CLOUDY    65  59  81 CALM      29.76F
BALTIMORE      CLOUDY    65  58  78 CALM      29.77F
ANNAPOLIS      CLOUDY    63  58  83 SE5       29.78S
ANDREWS AFB    PTSUNNY   68  58  70 N6        29.77F
PHILADELPHIA   CLOUDY    64  56  75 N5        29.78R
HENDERSON NC   MOSUNNY   75  59  56 W8        29.78S
GREENSBORO     MOSUNNY   79  62  56 W9        29.78S
ROCKY MOUNT    PTSUNNY   77  63  61 SW8       29.79S
$$

VAZ100-262200-
MARINE

STATION/POSITION TIME  TEMP    WIND        PRES    WAVE   SWELL
                       AIR SEA DIR/SP/G            HT/PER HT/PER
                 (UTC) (F)     (DEG/KT/KT) (MB)    (FT/S) (FT/S)
CAPE MAY NJ      2048   58 56  260/  4/  5 1008.0R
LEWES DE         2036   60 54  310/  1/  1 1008.2R
15NM E FENWICK I 2050   52 51   50/  2/  2 1009.1R   7/11   7/11
OCEAN-CITY-INLET 2036   55 56   80/  1/  2 1009.0R
WACHAPREAGUE VA  2042   68 63  310/  3/  7 1008.4R
THOMAS POINT MD  2100   61 56   80/  3/  3   N/A
GOOSES REEF MD   2100   60 54  120/  2/  2 1009.5    0
COVE POINT MD    2042   60      CALM  /  1 1009.5R
SOLOMONS ISLAND  2042   60 59   80/  6/  7   N/A
BISHOPS HEAD MD  2042   61 61  260/  6/  8 1009.3R
PINEY POINT MD   2048          300/  2/  3   N/A
POTOMAC MD       2100   61 61   70/  6/  8 1007.8    0
CAMBRIDGE MD     2036   64 62                N/A
LEWISETTA VA     2042   65 62   10/  5/  7 1008.3R
RAPPAHANNOCK LGT 2048           40/  6/  7 1009.6R
STINGRAY PT      2100   62 62  110/  6/  8 1009.0    0
YORK RVR RNG VA  2042   70     280/  6/  7 1008.0R
YORKTOWN VA      2042   69 64  340/  5/  9 1008.3R
JAMESTOWN VA     2100   72 69   CALM  /  2   N/A     0
DOMINION TERM VA 2042   70     340/  3/  3 1008.7R
KIPTOPEKE VA     2042      63  260/  2/  4   N/A
CHES BAY BRIDGE  2042   68 62  290/  8/ 10 1008.7R
CAPE HENRY VA    2042   65     320/  5/  5   N/A
WILLOUBY STN VA  2042   67     240/  3/  4 1009.8R
S CRANEY ISL VA  2042   70     360/  6/  6 1008.5R
CAPE HENRY BUOY  2042      61                N/A     4/ 9   2/11
1ST LANDING BUOY 2100   66 62              1009.1    2/ 6
CAPE CHARLES BUO 2051      58                N/A     4/ 9   2/11
64NM E OF VA BCH 2050   58 58  240/  4/  4 1009.7R   6/ 9   5/ 9
DUCK PIER NC     2042   69 60  240/  8/  9 1008.5R
44100 DUCK FRF   2005      59                N/A     4/ 9   2/11
44056 DUCK FRF   2100      62                N/A     4/10   2/11
OREGON INLET NC  2042   70 66  230/  3/  4 1009.1R
HATTERAS NC      2042   70 69  210/  9/ 13 1009.4R
DIAMOND SHLS NC  2050   71 77  230/ 10/ 14 1009.8R   5/ 8   5/ 8
CAPE LOOKOUT NC  2100   72     210/  7/ 10 1009.5R
$$



USA.gov is the U.S. government's official web portal to all federal, state and local government web resources and services.